Regional Weather Roundup
Issued by NWS Newport/Morehead, NC

Current Version | Previous Version | Graphics & Text | Print | Product List | Glossary On
Versions: 1 2 3 4 5 6 7 8 9 10 11 12 13 14 15 16 17 18 19 20 21 22 23 24 25 26 27 28 29 30 31 32 33 34 35 36 37 38 39 40 41 42 43 44 45 46 47 48 49 50
000 ASUS42 KMHX 250225 RWRMHX WEATHER ROUNDUP FOR EASTERN NORTH CAROLINA NATIONAL WEATHER SERVICE NEWPORT/MOREHEAD CITY NC 1000 PM EDT TUE APR 24 2018 NOTE: "FAIR" INDICATES FEW OR NO CLOUDS BELOW 12,000 FEET WITH NO SIGNIFICANT WEATHER AND/OR OBSTRUCTIONS TO VISIBILITY NCZ015>017-031-032-045>047-102-103-250300- NORTH COAST CITY SKY/WX TMP DP RH WIND PRES REMARKS EDENTON NOT AVBL ELIZABETH CITY CLOUDY 65 64 97 SE10 29.91F KITTY HAWK MOCLDY 61 60 96 SE12G22 29.89S MANTEO CLOUDY 62 60 93 S8 29.91F $$ NCZ045>047-081-094-103-104-250300- CENTRAL COAST CITY SKY/WX TMP DP RH WIND PRES REMARKS FRISCO FAIR 67 66 97 SE20G30 29.89S $$ NCZ095-097-098-100-101-250300- SOUTHERN COAST CITY SKY/WX TMP DP RH WIND PRES REMARKS BEAUFORT CLOUDY 67 64 90 SE13 29.86S CEDAR ISLAND NOT AVBL JACKSONVILLE CLOUDY 67 65 93 SE9 29.82F PINEY ISLAND NOT AVBL WILMINGTON FAIR 63 58 83 S10 29.84R $$ NCZ011>013-027>030-043-044-078>080-089-090>093-098-250300- COASTAL PLAIN CITY SKY/WX TMP DP RH WIND PRES REMARKS AHOSKIE CLOUDY 63 63 100 SE9 29.88S CLINTON CLOUDY 65 65 100 CALM 29.83R ELIZABETHTOWN FAIR 63 60 90 MISG 29.82S GOLDSBORO MOCLDY 64 63 94 E7 29.82S GREENVILLE LGT RAIN 64 63 94 SE8 29.88S HAVELOCK CLOUDY 69 66 90 SE13 29.86S KENANSVILLE CLOUDY 66 63 88 SE6 29.83S KINSTON CLOUDY 64 63 99 SE5 29.85S NEW BERN CLOUDY 65 63 93 SE8 29.86S RICHLANDS LGT RAIN 65 64 97 VRB5 29.84S ROCKY MOUNT CLOUDY 63 62 97 SE6 29.84F WASHINGTON CLOUDY 66 63 90 SE8G24 29.86F WHITEVILLE FAIR 62 60 93 CALM 29.82S $$ AMZ130-135-150-152-154-156-158-170-250-252-270-ANZ085-086-088-633-658-670-250300- MARINE OBSERVATIONS STATION/POSITION TIME TEMP WIND PRES WAVE SWELL AIR SEA DIR/SP/G HT/PER HT/PER (UTC) (F) (DEG/KT/KT) (MB) (FT/S) (FT/S) CHESAPEAKE LIGHT NOT AVBL 64 E VA BEACH 0150 60 49 120/ 10/ 19 1015.0 15/10 15/10 DUCK 0200 57 52 120/ 11/ 12 1012.5 2 E DUCK 0200 52 N/A 9/10 3/11 OREGON INLET 0200 110/ 8/ 12 1012.2 13E OREGON INLT 0148 51 N/A 13/10 13/10 HATTERAS CG 0200 66 62 110/ 12/ 17 1011.8 DIAMOND BUOY 0210 71 70 190/ 16/ 21 1011.9 CAPE LOOKOUT 0200 130/ 14/ 15 1011.2 BEAUFORT LAB 0200 66 62 130/ 13/ 15 1010.9 30 SE NEW RVR IN 0208 70 66 210/ 10/ 14 1008.0 30 SE NEW RVR IN 0200 66 N/A 11/10 5/11 27 SE WRIGHTSVLE 0208 67 65 220/ 12/ 19 1010.5 5 SE WRIGHTSVLE 0208 64 62 230/ 8/ 12 1009.1 225 S CAPE HAT 0210 72 73 160/ 23/ 27 1013.7 41 SE CHARLESTON 0210 69 200/ 14/ 17 1011.0 $$

USA.gov is the U.S. government's official web portal to all federal, state and local government web resources and services.